DW4221 Weather Reports


time (UTC)temp
C
wind
direction
speed
KPH
gust
KPH
rain 1hr
cm
rain 24hr
cm
rain mn
cm
humidity
%
barometer
mb
20260503224559 16 296 3.2 22.5 0.00 0.05 0.00 35 1002.4
20260503223051 17 254 1.6 17.7 0.00 0.05 0.00 33 1002.3
20260503221552 17 194 6.4 17.7 0.00 0.05 0.00 33 1002.8
20260503220055 17 360 6.4 22.5 0.00 0.05 0.00 33 1002.8
20260503214551 17 235 6.4 16.1 0.00 0.05 0.00 32 1002.8
20260503213101 18 80 3.2 14.5 0.00 0.05 0.00 32 1002.9
20260503211609 17 197 4.8 14.5 0.00 0.05 0.00 33 1003.0
20260503210050 17 339 4.8 17.7 0.00 0.05 0.00 34 1003.1
20260503204552 16 81 9.7 27.4 0.00 0.05 0.00 33 1003.5
20260503203052 17 167 4.8 17.7 0.00 0.05 0.00 33 1003.6
20260503201552 16 238 6.4 17.7 0.00 0.05 0.00 34 1003.8
20260503200106 16 268 4.8 17.7 0.00 0.05 0.00 34 1003.8
20260503194601 16 347 6.4 20.9 0.00 0.05 0.00 33 1004.0
20260503193058 16 257 3.2 17.7 0.00 0.05 0.00 34 1004.2
20260503191555 16 248 6.4 24.1 0.00 0.05 0.00 36 1004.4
20260503190051 15 296 4.8 27.4 0.00 0.05 0.00 31 1004.5
20260503184601 16 252 6.4 24.1 0.00 0.05 0.00 30 1004.9
20260503183050 15 0 9.7 25.7 0.00 0.05 0.00 28 1005.0
20260503181609 16 273 4.8 17.7 0.00 0.05 0.00 31 1005.0
20260503180111 15 88 6.4 20.9 0.00 0.05 0.00 31 1005.2
20260503174558 15 34 8.0 35.4 0.00 0.05 0.00 29 1005.5
20260503173102 14 281 4.8 20.9 0.00 0.05 0.00 32 1005.6
20260503171548 15 351 4.8 24.1 0.00 0.05 0.00 34 1005.7
20260503081553 4 0 0.0 0.0 0.00 0.05 0.00 95 1006.0
20260503071600 6 0 0.0 0.0 0.00 0.05 0.00 94 1006.5
20260503070110 7 0 0.0 0.0 0.00 0.05 0.00 95 1006.8
20260503054553 7 0 0.0 0.0 0.00 0.05 0.00 95 1007.1
20260503053052 7 0 0.0 0.0 0.00 0.05 0.00 94 1007.3
20260503051558 7 0 0.0 0.0 0.00 0.05 0.00 95 1007.3
20260503050052 7 0 0.0 0.0 0.00 0.05 0.00 94 1007.6
20260503044602 7 0 0.0 0.0 0.00 0.05 0.05 94 1007.3
20260503043057 8 0 0.0 1.6 0.00 0.05 0.05 94 1007.6
20260503041550 8 0 0.0 1.6 0.00 0.05 0.05 93 1007.6
20260503040100 8 0 0.0 3.2 0.03 0.05 0.05 93 1007.8
20260503034600 8 0 0.0 0.0 0.03 0.05 0.05 92 1008.1
20260503033054 8 0 0.0 1.6 0.05 0.05 0.05 90 1008.3
20260503031555 8 0 0.0 0.0 0.05 0.05 0.05 88 1008.6
20260503030118 9 0 0.0 1.6 0.03 0.03 0.03 86 1008.9
20260503024550 10 0 0.0 3.2 0.03 0.03 0.03 83 1009.0
20260503023048 10 0 0.0 11.3 0.00 0.00 0.00 79 1009.1
20260503021550 11 243 1.6 11.3 0.00 0.00 0.00 69 1008.9
20260503020052 12 216 3.2 17.7 0.00 0.00 0.00 60 1008.9
20260503014601 13 232 1.6 16.1 0.00 0.00 0.00 54 1008.7
20260503013052 13 259 3.2 16.1 0.00 0.00 0.00 52 1008.6
20260503011558 13 304 1.6 16.1 0.00 0.00 0.00 50 1008.7
20260503010104 13 258 1.6 12.9 0.00 0.00 0.00 49 1008.5
20260503004551 14 5 3.2 16.1 0.00 0.00 0.00 47 1008.3
20260503003059 14 282 1.6 11.3 0.00 0.00 0.00 45 1008.4
20260503001555 14 234 1.6 8.0 0.00 0.00 0.00 43 1008.0
20260503000054 15 246 1.6 8.0 0.00 0.00 0.00 44 1008.3
20260502234554 15 0 1.6 9.7 0.00 0.00 0.00 42 1008.1
20260502233052 15 211 1.6 9.7 0.00 0.00 0.00 42 1008.4
20260502231556 15 265 1.6 17.7 0.00 0.00 0.00 41 1008.6
20260502230053 15 248 3.2 11.3 0.00 0.00 0.00 39 1008.7